Regional Weather Roundup
Issued by NWS Albany, NY

Home | Current Version | Previous Version | Graphics & Text | Print | Product List | Glossary Off
Versions: 1 2 3 4 5 6 7 8 9 10 11 12 13 14 15 16 17 18 19 20 21 22 23 24 25 26 27 28 29 30 31 32 33 34 35 36 37 38 39 40 41 42 43 44 45 46 47 48 49 50

000
ASUS41 KALY 101710
RWRALY

NEW YORK STATE HOURLY WEATHER ROUNDUP
NATIONAL WEATHER SERVICE ALBANY NY
1200 PM EST WED FEB 10 2016

NOTE: "FAIR" INDICATES FEW OR NO CLOUDS BELOW 12,000 FEET WITH NO
SIGNIFICANT WEATHER AND/OR NO OBSTRUCTIONS TO VISIBILITY.

NYZ032-033-038>043-046>054-057>066-NYZ062>081-101800-
EAST


CITY           SKY/WX    TMP DP  RH WIND       PRES   REMARKS
ALBANY         PTSUNNY   36  29  75 VRB5      29.56F WCI  32
GLENS FALLS    PTSUNNY   33  26  75 S8        29.53F WCI  26
POUGHKEEPSIE   MOSUNNY   39  21  48 W14       29.57F WCI  31
NEWBURGH       PTSUNNY   37  21  52 NW17G29   29.58F WCI  28
MONTGOMERY     PTSUNNY   38  20  48 W8G20     29.57F WCI  32
WHITE PLAINS   PTSUNNY   37  22  54 W13       29.57F WCI  29
ISLIP          LGT SNOW  36  28  73 W12       29.58F WCI  28
NEW YORK CITY  PTSUNNY   38  25  59 W12G21    29.61F WCI  30
CENTRAL PARK   CLOUDY    37  24  59 W9        29.63F WCI  30
$$

NYZ005>009-017-018-044>046-055-056-101800-
CENTRAL


CITY           SKY/WX    TMP DP  RH WIND       PRES   REMARKS
FULTON         LGT SNOW  31  26  82 W10       29.58S VSB 1   WCI  22
SYRACUSE       LGT SNOW  28  25  88 W15       29.58F VSB 3/4 WCI  16
ROME           LGT SNOW  29  26  89 W14       29.58S VSB 1   WCI  18
ELMIRA         CLOUDY    31  19  61 W13       29.61F WCI  21
BINGHAMTON     CLOUDY    27  17  66 W16G25    29.55S WCI  15
MONTICELLO     CLOUDY    30  19  64 NW10G22   29.56S WCI  21
$$

NYZ026>034-041>043-101800-
NORTH


CITY           SKY/WX    TMP DP  RH WIND       PRES   REMARKS
WATERTOWN      LGT SNOW  24  20  84 W8        29.56F VSB 1   WCI  15
FORT DRUM      NOT AVBL
MASSENA        LGT SNOW  24  17  74 N8        29.54F WCI  15
SARANAC LAKE   CLOUDY    29  22  75 SW12      29.40F WCI  19
PLATTSBURGH    CLOUDY    26  20  77 N5        29.51F WCI  20
$$

NYZ001>004-010>016-019>021-101800-
WEST


CITY           SKY/WX    TMP DP  RH WIND       PRES   REMARKS
NIAGARA FALLS  LGT SNOW  27  20  75 W18       29.64S WCI  14
BUFFALO        FLURRIES  26  18  71 W21       29.64S WCI  12
DUNKIRK        MIX PCPN  26  16  65 W16G29    29.69S WCI  14
JAMESTOWN      CLOUDY    21  14  73 W14G20    29.62S WCI   8
WELLSVILLE     CLOUDY    24  15  68 W14       29.57F WCI  12
ROCHESTER      LGT SNOW  29  23  78 W18       29.61S FOG     WCI  16
PENN YAN       CLOUDY    30  18  60 W17G24    29.59S WCI  18
$$

             KEY
       WCI = WIND CHILL INDEX
       VSB = VISIBILITY
       HX  = HEAT INDEX
$$



USA.gov is the U.S. government's official web portal to all federal, state and local government web resources and services.